Location: Sternwarte ZA, Rosenfeld-Brittheim
(48.2889°N, 8.6789°E)
Time: 03:56:22
(UTC+02:00)

ISS - Pass Details

Date: 29 May 2017
Orbit: 401 x 408 km, 51.6° (Epoch: 25 June)

Event Time Altitude Azimuth Distance (km) Brightness Sun altitude
Rises 22:17:03 0° 260° (W) 2,336 0.5 -8.6°
Reaches altitude 10° 22:19:09 10° 264° (W) 1,476 -0.4 -8.8°
Maximum altitude 22:22:26 59° 345° (NNW) 477 -3.2 -9.2°
Drops below altitude 10° 22:25:43 10° 67° (ENE) 1,476 -1.2 -9.6°
Sets 22:27:49 0° 71° (ENE) 2,337 -0.2 -9.8°
